Location: Unspecified
(35.7250°N, 0.0000°E)
Time: 23:30:01
(UTC+00:00)

Tiros 1 - Pass Details

Date: 30 June 2019
Orbit: 630 x 664 km, 48.4° (Epoch: 19 July)

Event Time Altitude Azimuth Distance (km) Brightness Sun altitude
Rises 20:26:55 0° 255° (WSW) 2,973 11.1 -12.0°
Reaches altitude 10° 20:29:24 10° 263° (W) 2,059 10.4 -12.3°
Maximum altitude 20:33:51 39° 332° (NNW) 978 8.7 -13.0°
Drops below altitude 10° 20:38:16 10° 42° (NE) 2,044 9.7 -13.7°
Sets 20:40:44 0° 50° (NE) 2,949 10.5 -14.0°
